Flag for Germany Weather past 2 weeks in Wedel, Schleswig-Holstein, Germany

Now
43 °F

Sunny.


Feels Like: 41 °F
Forecast: 36 / 55 °F
Wind: 3 mph from North

Location: Hamburg-Finkenwerder

Current Time: Apr 28, 2015 at 9:43:50 AM

Latest Report: Apr 28, 2015 at 8:50 AM


Visibility: 10 mi

Pressure: 29.89 "Hg

Humidity: 81%

Dew point: 37 °F

Location of WedelLocation

Historic Weather in Wedel — Graph

°F

Wedel temperature yesterday

Maximum temperature yesterday: 54 °F (at 3:20 PM)
Minimum temperature yesterday: 43 °F (at 5:50 AM)
Average temperature yesterday: 48 °F

Past Weeks' High & Low Weather Summary

 TemperatureHumidityPressure
High70 °F (Apr 15, 3:20 PM)100% (Apr 14, 5:50 AM)30.39 "Hg (Apr 14, 5:50 AM)
Low32 °F (Apr 28, 6:20 AM)30% (Apr 20, 4:50 PM)29.68 "Hg (Apr 27, 5:50 AM)
Average52 °F69%30.10 "Hg
* Reported Apr 13 8:20 AM — Apr 28 8:20 AM, Wedel, Weather by CustomWeather, © 2015

Note: Actual official high and low records may vary slightly from our data, if they occured in-between our weather recording intervals... More about our weather records

Advertising

Wedel weather history for previous 24 hours

 ConditionsComfort  
Time TempWeatherWind HumidityBarometerVisibility
8:20 AM
Tue, Apr 28
41 °FSunny.3 mph87%29.89 "Hg10 mi
7:50 AM39 °FSunny.3 mph93%29.89 "Hg10 mi
7:20 AM36 °FSunny.3 mph100%29.89 "Hg10 mi
6:50 AM34 °FClear.5 mph100%29.86 "Hg10 mi
6:20 AM32 °FClear.3 mph100%29.86 "Hg10 mi
7:20 PM
Mon, Apr 27
48 °FSunny.18 mph66%29.77 "Hg10 mi
6:50 PM50 °FSunny.18 mph62%29.77 "Hg10 mi
6:20 PM50 °FSunny.17 mph62%29.77 "Hg10 mi
5:50 PM52 °FSunny.16 mph54%29.77 "Hg10 mi
5:20 PM52 °FSunny.14 mph50%29.77 "Hg10 mi
4:50 PM52 °FSunny.16 mph47%29.77 "Hg10 mi
4:20 PM54 °FScattered clouds.16 mph58%29.77 "HgN/A
3:50 PM54 °FScattered clouds.15 mph54%29.74 "HgN/A
3:20 PM54 °FScattered clouds.9 mph51%29.74 "HgN/A
2:50 PM52 °FBroken clouds.9 mph50%29.74 "HgN/A
2:20 PM52 °FBroken clouds.12 mph50%29.74 "HgN/A
1:50 PM52 °FPartly sunny.9 mph58%29.74 "HgN/A
1:20 PM50 °FPartly sunny.8 mph58%29.74 "HgN/A
12:50 PM50 °FPartly sunny.9 mph67%29.74 "HgN/A
12:20 PM48 °FPartly sunny.10 mph71%29.74 "HgN/A
11:50 AM48 °FPartly sunny.9 mph76%29.74 "HgN/A
11:20 AM48 °FPartly sunny.9 mph71%29.74 "HgN/A
10:50 AM46 °FPartly sunny.10 mph82%29.74 "HgN/A
10:20 AM46 °FPartly sunny.8 mph82%29.71 "HgN/A
9:50 AM45 °FPartly sunny.9 mph93%29.71 "HgN/A
9:20 AM45 °FLight rain. Partly sunny.10 mph93%29.71 "HgN/A
Weather by CustomWeather, © 2015

See weather overviewHow to use our weather pages